Time,TemperatureF,DewpointF,PressureIn,WindDirection,WindDirectionDegrees,WindSpeedMPH,WindSpeedGustMPH,Humidity,HourlyPrecipIn,Conditions,Clouds,dailyrainin,SoftwareType,DateUTC
2013-09-30 00:00:00,54.3,35.6,28.58,SSE,158,6.5,8.5,49,0.00,,,0.00,VWS V14.01,2013-09-30 05:00:00,
2013-09-30 00:05:00,54.1,35.9,28.58,SSE,158,10.1,11.0,50,0.00,,,0.00,VWS V14.01,2013-09-30 05:05:00,
2013-09-30 00:10:00,54.1,36.4,28.58,SSE,158,5.4,12.8,51,0.00,,,0.00,VWS V14.01,2013-09-30 05:10:00,
2013-09-30 00:15:00,54.0,36.3,28.58,SSE,158,7.4,11.4,51,0.00,,,0.00,VWS V14.01,2013-09-30 05:15:00,
2013-09-30 00:20:00,54.0,36.3,28.58,SSW,202,8.7,13.0,51,0.00,,,0.00,VWS V14.01,2013-09-30 05:20:00,
2013-09-30 00:25:00,54.0,36.3,28.58,SSE,158,13.0,13.0,51,0.00,,,0.00,VWS V14.01,2013-09-30 05:25:00,
2013-09-30 00:30:00,53.8,36.6,28.58,SSE,158,6.3,13.2,52,0.00,,,0.00,VWS V14.01,2013-09-30 05:30:00,
2013-09-30 00:35:00,53.6,36.4,28.58,SSW,202,6.0,12.5,52,0.00,,,0.00,VWS V14.01,2013-09-30 05:35:00,
2013-09-30 00:40:00,53.8,36.6,28.58,South,180,7.8,10.7,52,0.00,,,0.00,VWS V14.01,2013-09-30 05:40:00,
2013-09-30 00:45:00,53.6,36.4,28.55,South,180,7.6,13.0,52,0.00,,,0.00,VWS V14.01,2013-09-30 05:45:00,
2013-09-30 00:50:00,53.6,36.4,28.55,South,180,8.7,11.9,52,0.00,,,0.00,VWS V14.01,2013-09-30 05:50:00,
2013-09-30 00:55:00,53.4,36.7,28.55,SSE,158,8.7,11.0,53,0.00,,,0.00,VWS V14.01,2013-09-30 05:55:00,
2013-09-30 01:00:00,53.4,36.7,28.55,South,180,10.1,14.5,53,0.00,,,0.00,VWS V14.01,2013-09-30 06:00:00,
2013-09-30 01:05:00,53.4,36.7,28.55,SSE,158,8.1,13.0,53,0.00,,,0.00,VWS V14.01,2013-09-30 06:05:00,
2013-09-30 01:10:00,53.6,36.9,28.55,South,180,10.5,13.0,53,0.00,,,0.00,VWS V14.01,2013-09-30 06:10:00,
2013-09-30 01:15:00,53.6,36.9,28.55,SSE,158,12.5,12.5,53,0.00,,,0.00,VWS V14.01,2013-09-30 06:15:00,
2013-09-30 01:20:00,53.4,36.7,28.55,SSE,158,15.7,15.7,53,0.00,,,0.00,VWS V14.01,2013-09-30 06:20:00,
2013-09-30 01:25:00,53.4,36.7,28.55,SSE,158,9.8,15.7,53,0.00,,,0.00,VWS V14.01,2013-09-30 06:25:00,
2013-09-30 01:30:00,53.4,36.7,28.55,SSE,158,12.3,12.3,53,0.00,,,0.00,VWS V14.01,2013-09-30 06:30:00,
2013-09-30 01:35:00,53.4,36.7,28.55,South,180,10.5,13.2,53,0.00,,,0.00,VWS V14.01,2013-09-30 06:35:00,
2013-09-30 01:40:00,53.4,37.2,28.55,South,180,11.2,12.1,54,0.00,,,0.00,VWS V14.01,2013-09-30 06:40:00,
2013-09-30 01:45:00,53.4,37.2,28.55,SSE,158,10.1,11.2,54,0.00,,,0.00,VWS V14.01,2013-09-30 06:45:00,
2013-09-30 01:50:00,53.2,37.0,28.55,SSE,158,8.7,11.0,54,0.00,,,0.00,VWS V14.01,2013-09-30 06:50:00,
2013-09-30 01:55:00,53.2,37.0,28.55,SSE,158,5.6,12.5,54,0.00,,,0.00,VWS V14.01,2013-09-30 06:55:00,
2013-09-30 02:00:00,53.1,37.3,28.55,SSW,202,6.5,8.7,55,0.00,,,0.00,VWS V14.01,2013-09-30 07:00:00,
2013-09-30 02:05:00,53.1,37.3,28.55,SSE,158,9.6,10.5,55,0.00,,,0.00,VWS V14.01,2013-09-30 07:05:00,
2013-09-30 02:10:00,53.1,37.3,28.55,South,180,6.5,11.9,55,0.00,,,0.00,VWS V14.01,2013-09-30 07:10:00,
2013-09-30 02:15:00,52.9,37.6,28.55,SSE,158,5.8,10.5,56,0.00,,,0.00,VWS V14.01,2013-09-30 07:15:00,
2013-09-30 02:20:00,52.9,37.6,28.55,SSW,202,4.0,10.1,56,0.00,,,0.00,VWS V14.01,2013-09-30 07:20:00,
2013-09-30 02:25:00,52.7,37.5,28.55,SSE,158,6.5,10.7,56,0.00,,,0.00,VWS V14.01,2013-09-30 07:25:00,
2013-09-30 02:30:00,52.3,37.6,28.55,SSE,158,8.5,9.6,57,0.00,,,0.00,VWS V14.01,2013-09-30 07:30:00,
2013-09-30 02:35:00,52.0,37.2,28.55,South,180,4.7,8.5,57,0.00,,,0.00,VWS V14.01,2013-09-30 07:35:00,
2013-09-30 02:40:00,51.6,37.8,28.55,SSE,158,6.3,8.1,59,0.00,,,0.00,VWS V14.01,2013-09-30 07:40:00,
2013-09-30 02:45:00,51.3,37.9,28.55,SSE,158,4.9,6.5,60,0.00,,,0.00,VWS V14.01,2013-09-30 07:45:00,
2013-09-30 02:50:00,51.3,38.7,28.55,SSE,158,5.8,7.4,62,0.00,,,0.00,VWS V14.01,2013-09-30 07:50:00,
2013-09-30 02:55:00,51.1,38.9,28.55,SSE,158,5.4,7.2,63,0.00,,,0.00,VWS V14.01,2013-09-30 07:55:00,
2013-09-30 03:00:00,50.9,38.8,28.52,SSE,158,4.3,7.4,63,0.00,,,0.00,VWS V14.01,2013-09-30 08:00:00,
2013-09-30 03:05:00,50.9,39.2,28.52,SSE,158,8.5,8.5,64,0.00,,,0.00,VWS V14.01,2013-09-30 08:05:00,
2013-09-30 03:10:00,50.9,39.6,28.52,SSE,158,8.7,8.7,65,0.00,,,0.00,VWS V14.01,2013-09-30 08:10:00,
2013-09-30 03:15:00,50.7,39.8,28.52,SSE,158,7.4,8.7,66,0.00,,,0.00,VWS V14.01,2013-09-30 08:15:00,
2013-09-30 03:20:00,50.7,39.8,28.52,SSE,158,5.6,8.7,66,0.00,,,0.00,VWS V14.01,2013-09-30 08:20:00,
2013-09-30 03:25:00,50.5,39.6,28.52,SSE,158,5.4,7.2,66,0.00,,,0.00,VWS V14.01,2013-09-30 08:25:00,
2013-09-30 03:30:00,50.4,39.8,28.52,SSE,158,5.4,6.5,67,0.00,,,0.00,VWS V14.01,2013-09-30 08:30:00,
2013-09-30 03:35:00,50.4,39.8,28.52,SSE,158,4.0,7.2,67,0.00,,,0.00,VWS V14.01,2013-09-30 08:35:00,
2013-09-30 03:40:00,50.4,40.2,28.52,SSW,202,4.3,8.1,68,0.00,,,0.00,VWS V14.01,2013-09-30 08:40:00,
2013-09-30 03:45:00,50.4,40.6,28.52,South,180,6.7,8.5,69,0.00,,,0.00,VWS V14.01,2013-09-30 08:45:00,
2013-09-30 03:50:00,50.5,41.1,28.52,SSE,158,6.3,8.7,70,0.00,,,0.00,VWS V14.01,2013-09-30 08:50:00,
2013-09-30 03:55:00,50.9,41.5,28.52,South,180,6.0,8.7,70,0.00,,,0.00,VWS V14.01,2013-09-30 08:55:00,
2013-09-30 04:00:00,51.1,41.3,28.52,South,180,6.3,8.7,69,0.00,,,0.00,VWS V14.01,2013-09-30 09:00:00,
2013-09-30 04:05:00,51.1,41.3,28.52,SSW,202,6.0,9.2,69,0.00,,,0.00,VWS V14.01,2013-09-30 09:05:00,
2013-09-30 04:10:00,51.3,41.5,28.52,SSE,158,4.0,6.5,69,0.00,,,0.00,VWS V14.01,2013-09-30 09:10:00,
2013-09-30 04:15:00,51.4,41.6,28.52,SSW,202,7.4,7.6,69,0.00,,,0.00,VWS V14.01,2013-09-30 09:15:00,
2013-09-30 04:20:00,51.6,41.8,28.52,SSE,158,4.9,8.1,69,0.00,,,0.00,VWS V14.01,2013-09-30 09:20:00,
2013-09-30 04:25:00,52.0,42.1,28.52,SSE,158,7.4,8.7,69,0.00,,,0.00,VWS V14.01,2013-09-30 09:25:00,
2013-09-30 04:30:00,52.5,42.3,28.52,SSE,158,5.6,10.1,68,0.00,,,0.00,VWS V14.01,2013-09-30 09:30:00,
2013-09-30 04:35:00,52.7,41.7,28.52,SSW,202,6.5,9.6,66,0.00,,,0.00,VWS V14.01,2013-09-30 09:35:00,
2013-09-30 04:40:00,53.1,41.6,28.52,SE,135,6.3,11.0,65,0.00,,,0.00,VWS V14.01,2013-09-30 09:40:00,
2013-09-30 04:45:00,53.1,41.2,28.52,SSE,158,6.0,10.5,64,0.00,,,0.00,VWS V14.01,2013-09-30 09:45:00,
2013-09-30 04:50:00,53.1,41.2,28.52,South,180,5.4,12.3,64,0.00,,,0.00,VWS V14.01,2013-09-30 09:50:00,
2013-09-30 04:55:00,52.9,41.0,28.52,SSE,158,7.2,11.0,64,0.00,,,0.00,VWS V14.01,2013-09-30 09:55:00,
2013-09-30 05:00:00,52.9,41.0,28.52,SSE,158,5.8,8.5,64,0.00,,,0.00,VWS V14.01,2013-09-30 10:00:00,
2013-09-30 05:05:00,52.9,41.0,28.52,SSE,158,4.9,8.7,64,0.00,,,0.00,VWS V14.01,2013-09-30 10:05:00,
2013-09-30 05:10:00,52.5,41.1,28.52,South,180,6.5,7.8,65,0.00,,,0.00,VWS V14.01,2013-09-30 10:10:00,
2013-09-30 05:15:00,52.3,40.9,28.52,SSE,158,4.0,10.1,65,0.00,,,0.00,VWS V14.01,2013-09-30 10:15:00,
2013-09-30 05:20:00,52.2,41.2,28.52,SSE,158,5.6,8.1,66,0.00,,,0.00,VWS V14.01,2013-09-30 10:20:00,
2013-09-30 05:25:00,52.0,41.0,28.52,SSE,158,5.8,7.6,66,0.00,,,0.00,VWS V14.01,2013-09-30 10:25:00,
2013-09-30 05:30:00,52.0,41.4,28.52,SSW,202,5.6,8.7,67,0.00,,,0.00,VWS V14.01,2013-09-30 10:30:00,
2013-09-30 05:35:00,52.0,41.8,28.52,SSE,158,7.6,9.0,68,0.00,,,0.00,VWS V14.01,2013-09-30 10:35:00,
2013-09-30 05:40:00,52.0,41.8,28.52,SSE,158,5.4,8.7,68,0.00,,,0.00,VWS V14.01,2013-09-30 10:40:00,
2013-09-30 05:45:00,52.0,41.8,28.52,SSE,158,5.6,8.7,68,0.00,,,0.00,VWS V14.01,2013-09-30 10:45:00,
2013-09-30 05:50:00,52.0,41.8,28.52,SSE,158,5.8,8.5,68,0.00,,,0.00,VWS V14.01,2013-09-30 10:50:00,
2013-09-30 05:55:00,52.0,41.8,28.52,SSE,158,9.8,9.8,68,0.00,,,0.00,VWS V14.01,2013-09-30 10:55:00,
2013-09-30 06:00:00,51.8,41.6,28.52,SSE,158,7.2,9.8,68,0.00,,,0.00,VWS V14.01,2013-09-30 11:00:00,
2013-09-30 06:05:00,51.8,41.6,28.52,South,180,5.8,7.8,68,0.00,,,0.00,VWS V14.01,2013-09-30 11:05:00,
2013-09-30 06:10:00,51.6,41.8,28.52,SSE,158,5.6,9.4,69,0.00,,,0.00,VWS V14.01,2013-09-30 11:10:00,
2013-09-30 06:15:00,51.4,42.0,28.50,SSE,158,6.3,8.5,70,0.00,,,0.00,VWS V14.01,2013-09-30 11:15:00,
2013-09-30 06:20:00,51.4,42.0,28.50,SSE,158,7.6,8.1,70,0.00,,,0.00,VWS V14.01,2013-09-30 11:20:00,
2013-09-30 06:25:00,51.3,42.2,28.50,South,180,6.5,7.6,71,0.00,,,0.00,VWS V14.01,2013-09-30 11:25:00,
2013-09-30 06:30:00,51.3,42.2,28.50,South,180,6.9,9.0,71,0.00,,,0.00,VWS V14.01,2013-09-30 11:30:00,
2013-09-30 06:35:00,51.3,42.5,28.50,SSE,158,8.1,9.8,72,0.00,,,0.00,VWS V14.01,2013-09-30 11:35:00,
2013-09-30 06:40:00,51.4,42.7,28.50,SSE,158,7.6,9.8,72,0.00,,,0.00,VWS V14.01,2013-09-30 11:40:00,
2013-09-30 06:45:00,51.3,42.5,28.50,SSE,158,8.1,8.1,72,0.00,,,0.00,VWS V14.01,2013-09-30 11:45:00,
2013-09-30 06:50:00,51.4,42.7,28.50,South,180,8.1,10.7,72,0.00,,,0.00,VWS V14.01,2013-09-30 11:50:00,
2013-09-30 06:55:00,51.4,42.7,28.50,SSE,158,6.5,11.0,72,0.00,,,0.00,VWS V14.01,2013-09-30 11:55:00,
2013-09-30 07:00:00,51.4,42.7,28.50,South,180,6.5,10.3,72,0.00,,,0.00,VWS V14.01,2013-09-30 12:00:00,
2013-09-30 07:05:00,51.4,42.7,28.50,South,180,8.1,10.1,72,0.00,,,0.00,VWS V14.01,2013-09-30 12:05:00,
2013-09-30 07:10:00,51.3,42.5,28.50,SSE,158,7.4,8.1,72,0.00,,,0.00,VWS V14.01,2013-09-30 12:10:00,
2013-09-30 07:15:00,51.4,43.1,28.52,SSE,158,6.0,10.3,73,0.00,,,0.00,VWS V14.01,2013-09-30 12:15:00,
2013-09-30 07:20:00,51.4,43.1,28.52,South,180,6.0,9.2,73,0.00,,,0.00,VWS V14.01,2013-09-30 12:20:00,
2013-09-30 07:25:00,51.6,42.9,28.52,South,180,6.9,10.7,72,0.00,,,0.00,VWS V14.01,2013-09-30 12:25:00,
2013-09-30 07:30:00,51.6,42.9,28.50,SSE,158,8.7,10.5,72,0.00,,,0.00,VWS V14.01,2013-09-30 12:30:00,
2013-09-30 07:35:00,51.8,42.7,28.50,SSE,158,9.6,10.5,71,0.00,,,0.00,VWS V14.01,2013-09-30 12:35:00,
2013-09-30 07:40:00,52.2,43.1,28.50,SSE,158,10.1,12.5,71,0.00,,,0.00,VWS V14.01,2013-09-30 12:40:00,
2013-09-30 07:45:00,52.3,42.9,28.50,SSE,158,4.9,11.0,70,0.00,,,0.00,VWS V14.01,2013-09-30 12:45:00,
2013-09-30 07:50:00,52.5,43.0,28.50,SSE,158,8.7,10.5,70,0.00,,,0.00,VWS V14.01,2013-09-30 12:50:00,
2013-09-30 07:55:00,53.1,43.2,28.50,South,180,9.8,10.1,69,0.00,,,0.00,VWS V14.01,2013-09-30 12:55:00,
2013-09-30 08:00:00,53.4,43.1,28.50,South,180,5.4,9.8,68,0.00,,,0.00,VWS V14.01,2013-09-30 13:00:00,
2013-09-30 08:05:00,54.1,42.7,28.50,SSW,202,6.3,12.8,65,0.00,,,0.00,VWS V14.01,2013-09-30 13:05:00,
2013-09-30 08:10:00,54.3,42.4,28.50,SSE,158,7.6,12.3,64,0.00,,,0.00,VWS V14.01,2013-09-30 13:10:00,
2013-09-30 08:15:00,54.9,42.1,28.50,SSE,158,6.3,11.2,62,0.00,,,0.00,VWS V14.01,2013-09-30 13:15:00,
2013-09-30 08:20:00,55.9,41.8,28.50,SSE,158,14.3,14.3,59,0.00,,,0.00,VWS V14.01,2013-09-30 13:20:00,
2013-09-30 08:25:00,57.0,42.0,28.50,South,180,9.6,16.3,57,0.00,,,0.00,VWS V14.01,2013-09-30 13:25:00,
2013-09-30 08:30:00,58.3,40.8,28.50,SSE,158,12.1,15.7,52,0.00,,,0.00,VWS V14.01,2013-09-30 13:30:00,
2013-09-30 08:35:00,58.5,40.4,28.50,SSE,158,11.4,14.8,51,0.00,,,0.00,VWS V14.01,2013-09-30 13:35:00,
2013-09-30 08:40:00,58.6,40.1,28.50,South,180,13.0,16.1,50,0.00,,,0.00,VWS V14.01,2013-09-30 13:40:00,
2013-09-30 08:45:00,58.5,39.4,28.50,South,180,10.1,15.2,49,0.00,,,0.00,VWS V14.01,2013-09-30 13:45:00,
2013-09-30 08:50:00,58.6,39.6,28.50,SSW,202,7.8,15.2,49,0.00,,,0.00,VWS V14.01,2013-09-30 13:50:00,
2013-09-30 08:55:00,58.8,39.7,28.50,SE,135,7.4,16.6,49,0.00,,,0.00,VWS V14.01,2013-09-30 13:55:00,
2013-09-30 09:00:00,59.2,39.5,28.50,South,180,12.3,13.2,48,0.00,,,0.00,VWS V14.01,2013-09-30 14:00:00,
2013-09-30 09:05:00,59.5,39.3,28.50,SSE,158,7.8,15.2,47,0.00,,,0.00,VWS V14.01,2013-09-30 14:05:00,
2013-09-30 09:10:00,59.7,39.5,28.50,SSW,202,7.8,10.5,47,0.00,,,0.00,VWS V14.01,2013-09-30 14:10:00,
2013-09-30 09:15:00,59.9,39.1,28.50,South,180,10.5,13.2,46,0.00,,,0.00,VWS V14.01,2013-09-30 14:15:00,
2013-09-30 09:20:00,60.4,39.6,28.50,SSE,158,8.7,12.3,46,0.00,,,0.00,VWS V14.01,2013-09-30 14:20:00,
2013-09-30 09:25:00,61.5,40.0,28.50,SSW,202,11.0,18.8,45,0.00,,,0.00,VWS V14.01,2013-09-30 14:25:00,
2013-09-30 09:30:00,62.4,40.2,28.50,SSW,202,11.0,15.4,44,0.00,,,0.00,VWS V14.01,2013-09-30 14:30:00,
2013-09-30 09:35:00,63.5,40.0,28.50,SSE,158,6.0,15.7,42,0.00,,,0.00,VWS V14.01,2013-09-30 14:35:00,
2013-09-30 09:40:00,64.2,39.4,28.50,SW,225,10.7,17.2,40,0.00,,,0.00,VWS V14.01,2013-09-30 14:40:00,
2013-09-30 09:45:00,64.8,39.2,28.47,SW,225,11.9,23.5,39,0.00,,,0.00,VWS V14.01,2013-09-30 14:45:00,
2013-09-30 09:50:00,64.8,38.6,28.47,South,180,10.3,16.3,38,0.00,,,0.00,VWS V14.01,2013-09-30 14:50:00,
2013-09-30 09:55:00,65.3,39.1,28.47,SSW,202,12.8,15.2,38,0.00,,,0.00,VWS V14.01,2013-09-30 14:55:00,
2013-09-30 10:00:00,64.9,38.1,28.47,SSW,202,8.7,13.0,37,0.00,,,0.00,VWS V14.01,2013-09-30 15:00:00,
2013-09-30 10:05:00,65.3,38.4,28.47,SSW,202,8.7,17.2,37,0.00,,,0.00,VWS V14.01,2013-09-30 15:05:00,
2013-09-30 10:10:00,66.2,38.5,28.47,South,180,7.8,19.7,36,0.00,,,0.00,VWS V14.01,2013-09-30 15:10:00,
2013-09-30 10:15:00,68.0,38.6,28.50,South,180,12.8,17.7,34,0.00,,,0.00,VWS V14.01,2013-09-30 15:15:00,
2013-09-30 10:20:00,69.4,39.9,28.50,SSW,202,13.2,17.5,34,0.00,,,0.00,VWS V14.01,2013-09-30 15:20:00,
2013-09-30 10:25:00,70.2,39.7,28.50,South,180,14.8,19.0,33,0.00,,,0.00,VWS V14.01,2013-09-30 15:25:00,
2013-09-30 10:30:00,70.7,39.4,28.47,South,180,8.5,16.3,32,0.00,,,0.00,VWS V14.01,2013-09-30 15:30:00,
2013-09-30 10:35:00,70.5,39.3,28.47,SSE,158,13.4,19.9,32,0.00,,,0.00,VWS V14.01,2013-09-30 15:35:00,
2013-09-30 10:40:00,70.2,39.0,28.47,South,180,10.1,21.5,32,0.00,,,0.00,VWS V14.01,2013-09-30 15:40:00,
2013-09-30 10:45:00,71.1,39.7,28.47,SSE,158,16.8,19.2,32,0.00,,,0.00,VWS V14.01,2013-09-30 15:45:00,
2013-09-30 10:50:00,72.1,39.9,28.47,SW,225,14.8,18.1,31,0.00,,,0.00,VWS V14.01,2013-09-30 15:50:00,
2013-09-30 10:55:00,72.5,39.3,28.47,SSE,158,13.4,28.0,30,0.00,,,0.00,VWS V14.01,2013-09-30 15:55:00,
2013-09-30 11:00:00,73.2,40.0,28.47,South,180,22.6,22.6,30,0.00,,,0.00,VWS V14.01,2013-09-30 16:00:00,
2013-09-30 11:05:00,73.0,38.9,28.47,SSW,202,13.2,23.9,29,0.00,,,0.00,VWS V14.01,2013-09-30 16:05:00,
2013-09-30 11:10:00,73.4,38.3,28.47,South,180,19.5,19.5,28,0.00,,,0.00,VWS V14.01,2013-09-30 16:10:00,
2013-09-30 11:15:00,73.9,37.9,28.47,SSE,158,12.5,19.5,27,0.00,,,0.00,VWS V14.01,2013-09-30 16:15:00,
2013-09-30 11:20:00,74.1,38.0,28.47,SSW,202,11.2,23.0,27,0.00,,,0.00,VWS V14.01,2013-09-30 16:20:00,
2013-09-30 11:25:00,74.5,37.4,28.47,SSE,158,10.7,20.4,26,0.00,,,0.00,VWS V14.01,2013-09-30 16:25:00,
2013-09-30 11:30:00,75.6,38.3,28.47,South,180,19.0,20.8,26,0.00,,,0.00,VWS V14.01,2013-09-30 16:30:00,
2013-09-30 11:35:00,75.9,37.6,28.47,SSE,158,19.5,22.6,25,0.00,,,0.00,VWS V14.01,2013-09-30 16:35:00,
2013-09-30 11:40:00,75.4,37.2,28.47,South,180,16.6,24.2,25,0.00,,,0.00,VWS V14.01,2013-09-30 16:40:00,
2013-09-30 11:45:00,75.7,37.5,28.47,SSE,158,23.5,26.4,25,0.00,,,0.00,VWS V14.01,2013-09-30 16:45:00,
2013-09-30 11:50:00,75.9,37.6,28.47,South,180,13.2,29.5,25,0.00,,,0.00,VWS V14.01,2013-09-30 16:50:00,
2013-09-30 11:55:00,75.9,37.6,28.47,SSE,158,10.7,25.5,25,0.00,,,0.00,VWS V14.01,2013-09-30 16:55:00,
2013-09-30 12:00:00,77.0,37.5,28.44,SSE,158,10.7,22.4,24,0.00,,,0.00,VWS V14.01,2013-09-30 17:00:00,
2013-09-30 12:05:00,77.4,37.8,28.44,SSE,158,15.4,26.0,24,0.00,,,0.00,VWS V14.01,2013-09-30 17:05:00,
2013-09-30 12:10:00,77.5,37.9,28.44,South,180,15.2,22.8,24,0.00,,,0.00,VWS V14.01,2013-09-30 17:10:00,
2013-09-30 12:15:00,77.9,38.2,28.44,SSW,202,15.4,21.5,24,0.00,,,0.00,VWS V14.01,2013-09-30 17:15:00,
2013-09-30 12:20:00,77.9,38.2,28.44,SSE,158,23.5,24.4,24,0.00,,,0.00,VWS V14.01,2013-09-30 17:20:00,
2013-09-30 12:25:00,77.9,37.2,28.44,SSE,158,19.5,23.9,23,0.00,,,0.00,VWS V14.01,2013-09-30 17:25:00,
2013-09-30 12:30:00,77.9,37.2,28.44,SSE,158,13.4,25.5,23,0.00,,,0.00,VWS V14.01,2013-09-30 17:30:00,
2013-09-30 12:35:00,78.3,37.5,28.44,South,180,19.2,25.3,23,0.00,,,0.00,VWS V14.01,2013-09-30 17:35:00,
2013-09-30 12:40:00,78.3,37.5,28.44,South,180,14.3,26.0,23,0.00,,,0.00,VWS V14.01,2013-09-30 17:40:00,
2013-09-30 12:45:00,79.2,38.2,28.44,South,180,23.9,26.4,23,0.00,,,0.00,VWS V14.01,2013-09-30 17:45:00,
2013-09-30 12:50:00,79.3,38.4,28.44,South,180,17.7,23.9,23,0.00,,,0.00,VWS V14.01,2013-09-30 17:50:00,
2013-09-30 12:55:00,79.5,37.4,28.44,South,180,10.5,26.4,22,0.00,,,0.00,VWS V14.01,2013-09-30 17:55:00,
2013-09-30 13:00:00,80.1,37.8,28.44,SSE,158,17.2,24.2,22,0.00,,,0.00,VWS V14.01,2013-09-30 18:00:00,
2013-09-30 13:05:00,80.1,37.8,28.44,SSW,202,13.0,23.0,22,0.00,,,0.00,VWS V14.01,2013-09-30 18:05:00,
2013-09-30 13:10:00,80.4,38.1,28.44,South,180,23.3,23.9,22,0.00,,,0.00,VWS V14.01,2013-09-30 18:10:00,
2013-09-30 13:15:00,81.1,37.5,28.44,South,180,20.1,26.6,21,0.00,,,0.00,VWS V14.01,2013-09-30 18:15:00,
2013-09-30 13:20:00,81.5,37.8,28.44,SSW,202,18.8,24.6,21,0.00,,,0.00,VWS V14.01,2013-09-30 18:20:00,
2013-09-30 13:25:00,81.3,37.7,28.44,SSE,158,15.4,22.8,21,0.00,,,0.00,VWS V14.01,2013-09-30 18:25:00,
2013-09-30 13:30:00,81.1,37.5,28.41,SSW,202,18.6,24.2,21,0.00,,,0.00,VWS V14.01,2013-09-30 18:30:00,
2013-09-30 13:35:00,81.5,37.8,28.41,SSE,158,11.0,27.7,21,0.00,,,0.00,VWS V14.01,2013-09-30 18:35:00,
2013-09-30 13:40:00,82.4,38.6,28.41,SSW,202,12.8,23.7,21,0.00,,,0.00,VWS V14.01,2013-09-30 18:40:00,
2013-09-30 13:45:00,82.2,38.4,28.44,South,180,20.6,20.6,21,0.00,,,0.00,VWS V14.01,2013-09-30 18:45:00,
2013-09-30 13:50:00,82.2,38.4,28.44,South,180,10.3,22.2,21,0.00,,,0.00,VWS V14.01,2013-09-30 18:50:00,
2013-09-30 13:55:00,82.6,37.5,28.44,SSE,158,12.3,22.4,20,0.00,,,0.00,VWS V14.01,2013-09-30 18:55:00,
2013-09-30 14:00:00,82.0,38.3,28.41,SSW,202,22.8,28.0,21,0.00,,,0.00,VWS V14.01,2013-09-30 19:00:00,
2013-09-30 14:05:00,82.2,38.4,28.41,SSE,158,21.3,29.1,21,0.00,,,0.00,VWS V14.01,2013-09-30 19:05:00,
2013-09-30 14:10:00,82.4,37.3,28.41,SSW,202,21.3,22.8,20,0.00,,,0.00,VWS V14.01,2013-09-30 19:10:00,
2013-09-30 14:15:00,82.6,38.7,28.41,SSE,158,10.3,22.4,21,0.00,,,0.00,VWS V14.01,2013-09-30 19:15:00,
2013-09-30 14:20:00,81.9,38.1,28.41,SSE,158,10.7,24.4,21,0.00,,,0.00,VWS V14.01,2013-09-30 19:20:00,
2013-09-30 14:25:00,82.4,37.3,28.41,SSW,202,23.9,25.1,20,0.00,,,0.00,VWS V14.01,2013-09-30 19:25:00,
2013-09-30 14:30:00,82.6,37.5,28.41,SSW,202,22.4,23.9,20,0.00,,,0.00,VWS V14.01,2013-09-30 19:30:00,
2013-09-30 14:35:00,82.9,37.8,28.41,SE,135,23.7,23.7,20,0.00,,,0.00,VWS V14.01,2013-09-30 19:35:00,
2013-09-30 14:40:00,82.4,37.3,28.41,SSW,202,16.3,27.5,20,0.00,,,0.00,VWS V14.01,2013-09-30 19:40:00,
2013-09-30 14:45:00,83.5,38.2,28.41,SSW,202,8.7,19.7,20,0.00,,,0.00,VWS V14.01,2013-09-30 19:45:00,
2013-09-30 14:50:00,83.8,38.5,28.41,South,180,13.6,19.7,20,0.00,,,0.00,VWS V14.01,2013-09-30 19:50:00,
2013-09-30 14:55:00,83.5,38.2,28.41,South,180,22.4,23.3,20,0.00,,,0.00,VWS V14.01,2013-09-30 19:55:00,
2013-09-30 15:00:00,82.9,37.8,28.41,SSE,158,17.0,26.4,20,0.00,,,0.00,VWS V14.01,2013-09-30 20:00:00,
2013-09-30 15:05:00,83.3,38.1,28.41,SSW,202,13.0,26.2,20,0.00,,,0.00,VWS V14.01,2013-09-30 20:05:00,
2013-09-30 15:10:00,83.3,38.1,28.41,SSW,202,19.0,20.6,20,0.00,,,0.00,VWS V14.01,2013-09-30 20:10:00,
2013-09-30 15:15:00,83.3,38.1,28.41,South,180,13.0,24.2,20,0.00,,,0.00,VWS V14.01,2013-09-30 20:15:00,
2013-09-30 15:20:00,82.9,37.8,28.41,SSW,202,14.3,20.4,20,0.00,,,0.00,VWS V14.01,2013-09-30 20:20:00,
2013-09-30 15:25:00,82.9,37.8,28.41,SSW,202,10.5,21.9,20,0.00,,,0.00,VWS V14.01,2013-09-30 20:25:00,
2013-09-30 15:30:00,82.6,37.5,28.38,SSW,202,12.8,23.0,20,0.00,,,0.00,VWS V14.01,2013-09-30 20:30:00,
2013-09-30 15:35:00,82.6,37.5,28.38,South,180,19.5,24.6,20,0.00,,,0.00,VWS V14.01,2013-09-30 20:35:00,
2013-09-30 15:40:00,82.6,37.5,28.38,South,180,13.9,20.1,20,0.00,,,0.00,VWS V14.01,2013-09-30 20:40:00,
2013-09-30 15:45:00,82.4,37.3,28.38,SW,225,15.2,23.5,20,0.00,,,0.00,VWS V14.01,2013-09-30 20:45:00,
2013-09-30 15:50:00,82.2,37.2,28.38,SSW,202,20.1,25.7,20,0.00,,,0.00,VWS V14.01,2013-09-30 20:50:00,
2013-09-30 15:55:00,82.8,37.6,28.38,SSW,202,10.3,20.1,20,0.00,,,0.00,VWS V14.01,2013-09-30 20:55:00,
2013-09-30 16:00:00,82.6,37.5,28.38,South,180,10.7,22.4,20,0.00,,,0.00,VWS V14.01,2013-09-30 21:00:00,
2013-09-30 16:05:00,82.2,37.2,28.38,South,180,13.0,23.3,20,0.00,,,0.00,VWS V14.01,2013-09-30 21:05:00,
2013-09-30 16:10:00,82.4,37.3,28.38,SSW,202,14.3,19.7,20,0.00,,,0.00,VWS V14.01,2013-09-30 21:10:00,
2013-09-30 16:15:00,82.2,37.2,28.38,South,180,15.4,18.1,20,0.00,,,0.00,VWS V14.01,2013-09-30 21:15:00,
2013-09-30 16:20:00,81.1,36.3,28.38,SSW,202,12.3,21.9,20,0.00,,,0.00,VWS V14.01,2013-09-30 21:20:00,
2013-09-30 16:25:00,80.6,35.9,28.38,SSE,158,21.9,22.4,20,0.00,,,0.00,VWS V14.01,2013-09-30 21:25:00,
2013-09-30 16:30:00,81.0,36.2,28.38,SSW,202,19.7,26.4,20,0.00,,,0.00,VWS V14.01,2013-09-30 21:30:00,
2013-09-30 16:35:00,81.0,36.2,28.38,South,180,15.2,19.7,20,0.00,,,0.00,VWS V14.01,2013-09-30 21:35:00,
2013-09-30 16:40:00,81.5,36.6,28.38,South,180,10.5,22.6,20,0.00,,,0.00,VWS V14.01,2013-09-30 21:40:00,
2013-09-30 16:45:00,81.7,36.8,28.38,South,180,13.0,19.2,20,0.00,,,0.00,VWS V14.01,2013-09-30 21:45:00,
2013-09-30 16:50:00,81.7,36.8,28.38,SSW,202,13.9,19.9,20,0.00,,,0.00,VWS V14.01,2013-09-30 21:50:00,
2013-09-30 16:55:00,81.5,36.6,28.38,SSE,158,14.8,20.4,20,0.00,,,0.00,VWS V14.01,2013-09-30 21:55:00,
2013-09-30 17:00:00,81.5,36.6,28.38,SSW,202,9.8,19.0,20,0.00,,,0.00,VWS V14.01,2013-09-30 22:00:00,
2013-09-30 17:05:00,81.1,36.3,28.38,SSW,202,13.9,24.2,20,0.00,,,0.00,VWS V14.01,2013-09-30 22:05:00,
2013-09-30 17:10:00,80.6,35.9,28.38,SSW,202,13.0,25.7,20,0.00,,,0.00,VWS V14.01,2013-09-30 22:10:00,
2013-09-30 17:15:00,80.6,35.9,28.38,SSW,202,12.3,21.3,20,0.00,,,0.00,VWS V14.01,2013-09-30 22:15:00,
2013-09-30 17:20:00,80.1,36.7,28.38,SSW,202,12.3,26.0,21,0.00,,,0.00,VWS V14.01,2013-09-30 22:20:00,
2013-09-30 17:25:00,79.9,36.5,28.38,SSW,202,6.5,21.0,21,0.00,,,0.00,VWS V14.01,2013-09-30 22:25:00,
2013-09-30 17:30:00,79.9,36.5,28.38,SSE,158,13.2,16.8,21,0.00,,,0.00,VWS V14.01,2013-09-30 22:30:00,
2013-09-30 17:35:00,79.7,36.3,28.38,South,180,10.7,22.2,21,0.00,,,0.00,VWS V14.01,2013-09-30 22:35:00,
2013-09-30 17:40:00,79.5,36.2,28.38,SSW,202,8.1,17.2,21,0.00,,,0.00,VWS V14.01,2013-09-30 22:40:00,
2013-09-30 17:45:00,79.0,35.8,28.41,SSW,202,12.8,18.1,21,0.00,,,0.00,VWS V14.01,2013-09-30 22:45:00,
2013-09-30 17:50:00,78.8,35.6,28.41,South,180,8.5,17.2,21,0.00,,,0.00,VWS V14.01,2013-09-30 22:50:00,
2013-09-30 17:55:00,78.4,35.3,28.41,South,180,15.2,15.2,21,0.00,,,0.00,VWS V14.01,2013-09-30 22:55:00,
2013-09-30 18:00:00,78.3,35.2,28.41,SSW,202,10.1,17.5,21,0.00,,,0.00,VWS V14.01,2013-09-30 23:00:00,
2013-09-30 18:05:00,78.1,35.0,28.41,SSW,202,9.8,19.9,21,0.00,,,0.00,VWS V14.01,2013-09-30 23:05:00,
2013-09-30 18:10:00,77.9,34.9,28.41,SSE,158,12.5,15.9,21,0.00,,,0.00,VWS V14.01,2013-09-30 23:10:00,
2013-09-30 18:15:00,77.9,34.9,28.41,South,180,12.3,15.7,21,0.00,,,0.00,VWS V14.01,2013-09-30 23:15:00,
2013-09-30 18:20:00,76.6,35.0,28.41,SSW,202,7.8,17.7,22,0.00,,,0.00,VWS V14.01,2013-09-30 23:20:00,
2013-09-30 18:25:00,75.9,34.4,28.41,South,180,11.0,14.5,22,0.00,,,0.00,VWS V14.01,2013-09-30 23:25:00,
2013-09-30 18:30:00,75.0,34.7,28.41,SSW,202,11.9,15.4,23,0.00,,,0.00,VWS V14.01,2013-09-30 23:30:00,
2013-09-30 18:35:00,74.5,34.3,28.41,SSE,158,7.8,13.0,23,0.00,,,0.00,VWS V14.01,2013-09-30 23:35:00,
2013-09-30 18:40:00,74.5,34.3,28.41,SSW,202,12.1,13.0,23,0.00,,,0.00,VWS V14.01,2013-09-30 23:40:00,
2013-09-30 18:45:00,74.3,34.1,28.41,SSW,202,9.0,13.2,23,0.00,,,0.00,VWS V14.01,2013-09-30 23:45:00,
2013-09-30 18:50:00,73.4,34.5,28.41,SSW,202,7.6,12.5,24,0.00,,,0.00,VWS V14.01,2013-09-30 23:50:00,
2013-09-30 18:55:00,72.5,34.7,28.41,SSE,158,10.7,12.1,25,0.00,,,0.00,VWS V14.01,2013-09-30 23:55:00,
2013-09-30 19:00:00,72.0,34.2,28.41,SSE,158,6.5,11.2,25,0.00,,,0.00,VWS V14.01,2013-10-01 00:00:00,
2013-09-30 19:05:00,71.4,34.8,28.41,SSE,158,5.8,10.5,26,0.00,,,0.00,VWS V14.01,2013-10-01 00:05:00,
2013-09-30 19:10:00,71.1,35.4,28.41,South,180,8.7,11.0,27,0.00,,,0.00,VWS V14.01,2013-10-01 00:10:00,
2013-09-30 19:15:00,70.5,35.9,28.41,SSE,158,7.8,10.1,28,0.00,,,0.00,VWS V14.01,2013-10-01 00:15:00,
2013-09-30 19:20:00,70.0,36.3,28.41,SSW,202,6.5,10.5,29,0.00,,,0.00,VWS V14.01,2013-10-01 00:20:00,
2013-09-30 19:25:00,70.0,36.3,28.41,South,180,5.8,10.3,29,0.00,,,0.00,VWS V14.01,2013-10-01 00:25:00,
2013-09-30 19:30:00,69.6,37.7,28.41,SSE,158,5.6,11.2,31,0.00,,,0.00,VWS V14.01,2013-10-01 00:30:00,
2013-09-30 19:35:00,69.1,38.0,28.41,South,180,5.6,10.7,32,0.00,,,0.00,VWS V14.01,2013-10-01 00:35:00,
2013-09-30 19:40:00,68.5,37.5,28.41,SSE,158,6.5,8.1,32,0.00,,,0.00,VWS V14.01,2013-10-01 00:40:00,
2013-09-30 19:45:00,68.0,37.1,28.41,South,180,5.6,7.2,32,0.00,,,0.00,VWS V14.01,2013-10-01 00:45:00,
2013-09-30 19:50:00,67.5,37.4,28.41,South,180,4.3,7.6,33,0.00,,,0.00,VWS V14.01,2013-10-01 00:50:00,
2013-09-30 19:55:00,67.3,38.0,28.41,SSE,158,6.7,9.6,34,0.00,,,0.00,VWS V14.01,2013-10-01 00:55:00,
2013-09-30 20:00:00,66.9,37.7,28.41,SSE,158,5.4,9.6,34,0.00,,,0.00,VWS V14.01,2013-10-01 01:00:00,
2013-09-30 20:05:00,66.6,37.3,28.41,SSE,158,5.8,7.8,34,0.00,,,0.00,VWS V14.01,2013-10-01 01:05:00,
2013-09-30 20:10:00,66.0,37.6,28.41,SSE,158,7.4,7.4,35,0.00,,,0.00,VWS V14.01,2013-10-01 01:10:00,
2013-09-30 20:15:00,65.7,37.3,28.41,SSE,158,4.0,8.5,35,0.00,,,0.00,VWS V14.01,2013-10-01 01:15:00,
2013-09-30 20:20:00,65.1,37.5,28.41,SSE,158,7.8,7.8,36,0.00,,,0.00,VWS V14.01,2013-10-01 01:20:00,
2013-09-30 20:25:00,64.6,37.0,28.41,SSE,158,6.0,7.8,36,0.00,,,0.00,VWS V14.01,2013-10-01 01:25:00,
2013-09-30 20:30:00,64.4,37.6,28.41,SSE,158,7.4,8.5,37,0.00,,,0.00,VWS V14.01,2013-10-01 01:30:00,
2013-09-30 20:35:00,64.2,38.1,28.41,SSE,158,5.6,8.1,38,0.00,,,0.00,VWS V14.01,2013-10-01 01:35:00,
2013-09-30 20:40:00,64.4,38.3,28.41,SE,135,5.6,11.0,38,0.00,,,0.00,VWS V14.01,2013-10-01 01:40:00,
2013-09-30 20:45:00,64.6,38.4,28.44,SSE,158,5.6,8.7,38,0.00,,,0.00,VWS V14.01,2013-10-01 01:45:00,
2013-09-30 20:50:00,64.4,38.3,28.44,South,180,7.4,9.0,38,0.00,,,0.00,VWS V14.01,2013-10-01 01:50:00,
2013-09-30 20:55:00,64.4,38.3,28.44,SSE,158,7.6,8.7,38,0.00,,,0.00,VWS V14.01,2013-10-01 01:55:00,
2013-09-30 21:00:00,64.4,38.3,28.44,SSE,158,5.6,8.1,38,0.00,,,0.00,VWS V14.01,2013-10-01 02:00:00,
2013-09-30 21:05:00,64.2,38.1,28.44,South,180,4.0,8.7,38,0.00,,,0.00,VWS V14.01,2013-10-01 02:05:00,
2013-09-30 21:10:00,64.0,38.6,28.44,SSE,158,5.6,8.5,39,0.00,,,0.00,VWS V14.01,2013-10-01 02:10:00,
2013-09-30 21:15:00,63.9,38.5,28.44,SSE,158,4.9,8.7,39,0.00,,,0.00,VWS V14.01,2013-10-01 02:15:00,
2013-09-30 21:20:00,63.7,38.3,28.44,SSW,202,5.8,8.5,39,0.00,,,0.00,VWS V14.01,2013-10-01 02:20:00,
2013-09-30 21:25:00,63.5,38.1,28.44,South,180,4.0,7.8,39,0.00,,,0.00,VWS V14.01,2013-10-01 02:25:00,
2013-09-30 21:30:00,63.3,38.6,28.44,SSE,158,7.2,7.6,40,0.00,,,0.00,VWS V14.01,2013-10-01 02:30:00,
2013-09-30 21:35:00,63.0,38.3,28.44,South,180,7.6,7.8,40,0.00,,,0.00,VWS V14.01,2013-10-01 02:35:00,
2013-09-30 21:40:00,63.0,38.3,28.44,SSW,202,8.5,8.5,40,0.00,,,0.00,VWS V14.01,2013-10-01 02:40:00,
2013-09-30 21:45:00,63.1,38.5,28.44,SSW,202,7.4,10.5,40,0.00,,,0.00,VWS V14.01,2013-10-01 02:45:00,
2013-09-30 21:50:00,63.3,38.6,28.44,SSW,202,8.1,9.4,40,0.00,,,0.00,VWS V14.01,2013-10-01 02:50:00,
2013-09-30 21:55:00,63.5,38.1,28.44,SSW,202,7.4,12.1,39,0.00,,,0.00,VWS V14.01,2013-10-01 02:55:00,
2013-09-30 22:00:00,63.5,38.1,28.44,South,180,7.4,10.7,39,0.00,,,0.00,VWS V14.01,2013-10-01 03:00:00,
2013-09-30 22:05:00,63.5,38.1,28.44,South,180,8.1,9.6,39,0.00,,,0.00,VWS V14.01,2013-10-01 03:05:00,
2013-09-30 22:10:00,63.5,38.1,28.44,SSW,202,6.3,10.3,39,0.00,,,0.00,VWS V14.01,2013-10-01 03:10:00,
2013-09-30 22:15:00,63.5,38.1,28.44,South,180,5.4,9.6,39,0.00,,,0.00,VWS V14.01,2013-10-01 03:15:00,
2013-09-30 22:20:00,63.5,38.1,28.44,South,180,7.4,9.8,39,0.00,,,0.00,VWS V14.01,2013-10-01 03:20:00,
2013-09-30 22:25:00,63.5,37.5,28.44,SSE,158,3.6,10.5,38,0.00,,,0.00,VWS V14.01,2013-10-01 03:25:00,
2013-09-30 22:30:00,63.5,37.5,28.44,SSW,202,8.7,10.1,38,0.00,,,0.00,VWS V14.01,2013-10-01 03:30:00,
2013-09-30 22:35:00,63.5,37.5,28.44,South,180,6.0,10.1,38,0.00,,,0.00,VWS V14.01,2013-10-01 03:35:00,
2013-09-30 22:40:00,63.7,37.6,28.44,SSE,158,9.6,10.3,38,0.00,,,0.00,VWS V14.01,2013-10-01 03:40:00,
2013-09-30 22:45:00,63.7,37.6,28.44,South,180,7.4,9.6,38,0.00,,,0.00,VWS V14.01,2013-10-01 03:45:00,
2013-09-30 22:50:00,63.7,37.6,28.44,SSW,202,7.8,10.3,38,0.00,,,0.00,VWS V14.01,2013-10-01 03:50:00,
2013-09-30 22:55:00,63.5,37.5,28.44,South,180,4.3,10.3,38,0.00,,,0.00,VWS V14.01,2013-10-01 03:55:00,
2013-09-30 23:00:00,63.5,37.5,28.44,South,180,7.8,10.5,38,0.00,,,0.00,VWS V14.01,2013-10-01 04:00:00,
2013-09-30 23:05:00,63.5,37.5,28.44,SSW,202,4.0,10.7,38,0.00,,,0.00,VWS V14.01,2013-10-01 04:05:00,
2013-09-30 23:10:00,63.3,37.3,28.44,SSW,202,4.9,8.7,38,0.00,,,0.00,VWS V14.01,2013-10-01 04:10:00,
2013-09-30 23:15:00,63.3,37.3,28.44,SSE,158,4.9,8.7,38,0.00,,,0.00,VWS V14.01,2013-10-01 04:15:00,
2013-09-30 23:20:00,63.5,37.5,28.44,SW,225,9.6,9.6,38,0.00,,,0.00,VWS V14.01,2013-10-01 04:20:00,
2013-09-30 23:25:00,63.3,37.3,28.44,South,180,7.6,9.6,38,0.00,,,0.00,VWS V14.01,2013-10-01 04:25:00,
2013-09-30 23:30:00,63.0,37.0,28.44,South,180,4.0,7.8,38,0.00,,,0.00,VWS V14.01,2013-10-01 04:30:00,
2013-09-30 23:35:00,63.0,37.0,28.44,South,180,7.4,8.7,38,0.00,,,0.00,VWS V14.01,2013-10-01 04:35:00,
2013-09-30 23:40:00,63.0,37.0,28.44,SSE,158,6.0,8.7,38,0.00,,,0.00,VWS V14.01,2013-10-01 04:40:00,
2013-09-30 23:45:00,63.0,37.0,28.44,SSE,158,9.6,11.4,38,0.00,,,0.00,VWS V14.01,2013-10-01 04:45:00,
2013-09-30 23:50:00,63.0,37.0,28.44,SSW,202,5.4,9.6,38,0.00,,,0.00,VWS V14.01,2013-10-01 04:50:00,
2013-09-30 23:55:00,63.0,37.0,28.44,SSW,202,6.0,9.2,38,0.00,,,0.00,VWS V14.01,2013-10-01 04:55:00,